map of PRG home
Great Circle Mapper logo
PRG - Airport
Location
City:  Prague, Czech Republic
Near (Alt.):Praha
Name:Ruzyne
ICAO / IATA:LKPR / PRG

Details
Type:Airport (Aerodrome, Airfield)
Use:Public/Civil, International (customs port of entry)
Latitude:5006'03"N (50.100833)
Longitude:1415'36"E (14.260000)
Datum:other
Elevation:1247 ft (380 m)
Runways:3
Longest:12189 × 148 ft (3715 × 45 m), paved

Time
Time Zone:UTC+1 (DST+2)
Local Time:

Weather
METAR:LKPR 251830Z 16006KT 9999 OVC019 06/04 Q1024 NOSIG
TAF:LKPR 251700Z 2518/2624 24008KT 6000 BKN015
TEMPO 2518/2521 3000 BR BKN010
BECMG 2523/2602 3000 BR
TEMPO 2602/2608 1200 -RADZ BR BKN007
BECMG 2608/2610 16006KT 8000 BKN023

Related Locations
Nearby:
Farthest:CHT: 11769 mi / 18940 km
Waitangi [Tuuta], Chatham Islands, NZ

Find:

   beyond  
but within

Other Information
Maps:
NOTAMs:
Links:
Sources:

  
flag of Czech Republic
flag of Prague
  

Sectional Chart

Flight Planning
at skyvector.com

Satellite Image

Google Maps Satellite View

 

Copyright © 2004-2014 Karl L. Swartz. All rights reserved.
The Great Circle Mapper name and logo are trademarks of the Great Circle Mapper.
All other trademarks mentioned herein belong to their respective owners.
Please see credits for attibutions and further copyright information.

  Follow gcmap on Facebook Follow gcmap on Twitter

hCard Microformat

Geo Microformat